DW4839 Weather Reports


time (UTC)temp
F
wind
direction
speed
knots
gust
knots
rain 1hr
in
rain 24hr
in
rain mn
in
humidity
%
barometer
mb
20260902123103 57 175 4.3 10.4 0.00 0.00 0.00 78 1009.5
20260902121601 57 193 3.5 10.4 0.00 0.00 0.00 78 1009.6
20260902120118 58 199 4.3 11.3 0.00 0.00 0.00 77 1009.8
20260902114604 57 193 4.3 10.4 0.00 0.00 0.00 78 1010.0
20260902113107 57 211 4.3 6.1 0.00 0.00 0.00 79 1010.1
20260902111613 57 156 3.5 7.8 0.00 0.00 0.00 79 1010.3
20260902110106 57 186 3.5 7.8 0.00 0.00 0.00 80 1010.4
20260902104623 57 161 2.6 6.1 0.00 0.00 0.00 81 1010.5
20260902103100 57 176 2.6 5.2 0.00 0.00 0.00 81 1010.6
20260902101601 57 209 3.5 7.8 0.00 0.00 0.00 80 1010.7
20260902100119 57 213 5.2 8.7 0.00 0.00 0.00 81 1010.7
20260902094555 57 176 4.3 10.4 0.00 0.00 0.00 80 1010.8
20260902093122 57 163 4.3 9.6 0.00 0.00 0.00 81 1011.0
20260902091552 56 203 4.3 8.7 0.00 0.00 0.00 82 1011.1
20260902090106 56 227 4.3 10.4 0.00 0.00 0.00 82 1011.2
20260902084607 57 194 3.5 9.6 0.00 0.00 0.00 82 1011.4
20260902083108 57 215 5.2 9.6 0.00 0.00 0.00 82 1011.4
20260902081620 57 185 4.3 7.8 0.00 0.00 0.00 83 1011.4
20260902080108 57 197 2.6 7.8 0.00 0.00 0.00 83 1011.3
20260902074559 58 194 2.6 5.2 0.00 0.00 0.00 82 1011.4
20260902073059 58 203 2.6 8.7 0.00 0.00 0.00 81 1011.6
20260902071602 58 218 5.2 10.4 0.00 0.00 0.00 80 1011.7
20260902070059 58 197 4.3 11.3 0.00 0.00 0.00 80 1011.7
20260902064558 58 171 3.5 11.3 0.00 0.00 0.00 80 1011.9
20260902063122 58 191 4.3 7.0 0.00 0.00 0.00 79 1012.0
20260902060126 59 167 3.5 8.7 0.00 0.00 0.00 78 1012.0
20260902054554 59 208 3.5 9.6 0.00 0.00 0.00 77 1012.3
20260902053105 59 193 2.6 7.8 0.00 0.00 0.00 77 1012.4
20260902051607 59 130 2.6 6.1 0.00 0.00 0.00 77 1012.3
20260902050055 59 211 4.3 12.2 0.00 0.00 0.00 77 1012.4
20260902044554 59 200 3.5 7.8 0.00 0.00 0.00 77 1012.3
20260902043111 60 235 4.3 8.7 0.00 0.00 0.00 77 1012.2
20260902041557 60 200 3.5 7.8 0.00 0.00 0.00 76 1012.3
20260902040107 60 203 1.7 5.2 0.00 0.00 0.00 76 1012.2
20260902034601 60 173 1.7 5.2 0.00 0.00 0.00 76 1012.1
20260902033112 60 190 1.7 4.3 0.00 0.00 0.00 75 1012.0
20260902031558 60 166 2.6 7.0 0.00 0.00 0.00 75 1012.0
20260902024603 61 191 3.5 7.0 0.00 0.00 0.00 73 1012.0
20260902023101 61 197 4.3 11.3 0.00 0.00 0.00 72 1011.9
20260902021605 62 205 2.6 6.1 0.00 0.00 0.00 71 1011.7
20260902020141 63 210 1.7 5.2 0.00 0.00 0.00 70 1011.7
20260902014602 63 188 3.5 7.8 0.00 0.00 0.00 70 1011.6
20260902013106 63 211 2.6 8.7 0.00 0.00 0.00 68 1011.6
20260902011555 63 223 4.3 7.0 0.00 0.00 0.00 67 1011.6
20260902010052 63 241 1.7 8.7 0.00 0.00 0.00 67 1011.5
20260902004603 64 210 2.6 9.6 0.00 0.00 0.00 66 1011.3
20260902003104 65 252 3.5 8.7 0.00 0.00 0.00 64 1011.2
20260902001556 67 242 4.3 10.4 0.00 0.00 0.00 62 1011.2
20260902000104 66 221 2.6 7.0 0.00 0.00 0.00 64 1011.2
20260901234611 65 234 2.6 7.8 0.00 0.00 0.00 66 1011.3
20260901233103 65 277 2.6 7.8 0.00 0.00 0.00 66 1011.6
20260901231558 66 219 0.9 6.1 0.00 0.00 0.00 66 1011.6
20260901230056 65 254 0.0 5.2 0.00 0.00 0.00 66 1011.7
20260901224603 65 276 1.7 6.1 0.00 0.00 0.00 65 1011.7
20260901223110 66 301 1.7 6.1 0.00 0.00 0.00 66 1011.7
20260901221640 65 165 1.7 7.8 0.00 0.00 0.00 66 1011.8
20260901220108 66 176 3.5 11.3 0.00 0.00 0.00 64 1011.7
20260901214600 67 211 3.5 10.4 0.00 0.00 0.00 64 1011.6
20260901213105 66 215 2.6 8.7 0.00 0.00 0.00 65 1011.7
20260901211602 66 260 2.6 6.1 0.00 0.00 0.00 67 1011.7
20260901210101 64 203 5.2 10.4 0.00 0.00 0.00 68 1011.7
20260901204559 64 184 4.3 8.7 0.00 0.00 0.00 68 1011.9
20260901203103 64 188 2.6 8.7 0.00 0.00 0.00 71 1011.9
20260901201551 63 225 1.7 5.2 0.00 0.00 0.00 74 1012.1
20260901200059 61 243 1.7 7.0 0.00 0.00 0.00 77 1012.0
20260901194559 61 228 2.6 7.0 0.00 0.00 0.00 77 1012.0
20260901193108 62 200 1.7 7.0 0.00 0.00 0.00 76 1012.1
20260901191553 62 242 3.5 7.0 0.00 0.00 0.00 77 1012.2
20260901190104 61 217 4.3 10.4 0.00 0.00 0.00 80 1012.5
20260901184607 60 184 4.3 7.8 0.00 0.00 0.00 80 1012.5
20260901183057 59 260 3.5 8.7 0.00 0.00 0.00 84 1012.5
20260901181607 59 249 3.5 7.8 0.00 0.00 0.00 85 1012.6
20260901180109 58 189 2.6 6.1 0.00 0.00 0.00 88 1012.7
20260901174559 57 208 1.7 5.2 0.00 0.00 0.00 90 1012.8
20260901173102 57 198 1.7 7.0 0.00 0.00 0.00 91 1012.8
20260901171604 56 229 2.6 4.3 0.00 0.00 0.00 92 1012.5
20260901170106 56 188 2.6 6.1 0.00 0.00 0.00 91 1012.5
20260901164606 56 214 2.6 7.0 0.00 0.00 0.00 91 1012.5
20260901163121 56 199 2.6 7.8 0.00 0.00 0.00 90 1012.5
20260901161603 56 204 1.7 5.2 0.00 0.00 0.00 90 1012.5
20260901160107 56 180 2.6 6.1 0.00 0.00 0.00 90 1012.4
20260901154600 55 240 2.6 5.2 0.00 0.00 0.00 90 1012.3
20260901153102 55 202 1.7 8.7 0.00 0.00 0.00 88 1012.4
20260901151558 56 200 2.6 7.0 0.00 0.00 0.00 87 1012.3
20260901150118 56 281 1.7 5.2 0.00 0.00 0.00 86 1012.1
20260901144603 56 178 2.6 7.8 0.00 0.00 0.00 85 1012.0
20260901143108 56 216 2.6 9.6 0.00 0.00 0.00 85 1011.9
20260901141605 56 197 2.6 7.8 0.00 0.00 0.00 85 1011.9
20260901140120 56 209 2.6 6.1 0.00 0.00 0.00 86 1011.9
20260901134629 56 198 4.3 10.4 0.00 0.00 0.00 86 1011.8
20260901133105 56 225 2.6 7.8 0.00 0.00 0.00 86 1011.7
20260901131608 56 211 3.5 11.3 0.00 0.00 0.00 86 1011.6
20260901130112 56 160 3.5 8.7 0.00 0.00 0.00 86 1011.6
20260901124608 55 244 4.3 8.7 0.00 0.00 0.00 86 1011.5